Total_Precipitation_Accumulation
1.14 1.02 0.96 0.98 0.91 0.86 0.83 0.83 0.83 0.80 0.71 0.66 0.62 0.54 0.51 0.51 0.45 0.39 0.32 0.32 0.32 0.39 0.55 0.86 1.20 1.51 1.72 1.80 1.78 1.60 1.50 1.35 1.20 1.11 1.07 1.14 1.16 1.13 1.20 1.35 1.34 1.27 1.26
1.14 1.07 0.97 0.92 0.86 0.77 0.72 0.71 0.69 0.72 0.70 0.63 0.58 0.50 0.46 0.47 0.46 0.42 0.41 0.42 0.37 0.36 0.45 0.67 0.94 1.25 1.60 1.85 1.92 1.85 1.69 1.59 1.42 1.26 1.18 1.17 1.21 1.18 1.18 1.25 1.35 1.34 1.31
1.22 1.18 1.07 0.95 0.90 0.85 0.82 0.78 0.76 0.75 0.70 0.64 0.60 0.54 0.46 0.42 0.43 0.44 0.45 0.45 0.45 0.43 0.47 0.62 0.78 1.01 1.42 1.82 2.03 2.12 1.97 1.79 1.65 1.48 1.27 1.16 1.18 1.23 1.22 1.27 1.36 1.45 1.45
1.33 1.25 1.19 1.08 1.03 1.02 0.99 0.93 0.85 0.81 0.75 0.66 0.60 0.56 0.51 0.45 0.40 0.42 0.46 0.46 0.45 0.45 0.49 0.55 0.69 0.91 1.21 1.58 1.95 2.22 2.29 2.10 1.97 1.86 1.64 1.40 1.24 1.26 1.31 1.33 1.39 1.50 1.60
1.60 1.39 1.28 1.24 1.25 1.24 1.16 1.05 0.97 0.87 0.81 0.73 0.67 0.62 0.54 0.49 0.45 0.43 0.44 0.46 0.48 0.47 0.48 0.51 0.57 0.70 0.93 1.29 1.80 2.25 2.59 2.59 2.41 2.28 2.07 1.84 1.58 1.40 1.41 1.41 1.45 1.55 1.68
1.79 1.65 1.48 1.40 1.40 1.40 1.33 1.20 1.08 0.99 0.91 0.88 0.85 0.77 0.64 0.55 0.51 0.48 0.45 0.46 0.49 0.48 0.48 0.51 0.55 0.56 0.65 0.82 1.22 1.80 2.32 2.67 2.71 2.63 2.51 2.28 2.05 1.82 1.70 1.63 1.59 1.66 1.79
1.79 1.78 1.59 1.51 1.40 1.34 1.30 1.25 1.19 1.16 1.08 1.06 1.13 1.06 0.90 0.73 0.63 0.57 0.53 0.52 0.52 0.55 0.61 0.65 0.70 0.66 0.63 0.66 0.73 1.03 1.61 2.27 2.68 2.84 2.84 2.79 2.57 2.30 2.08 1.92 1.85 1.88 1.97
1.79 1.87 1.77 1.66 1.58 1.49 1.44 1.42 1.38 1.32 1.24 1.13 1.19 1.28 1.18 1.05 0.82 0.63 0.58 0.55 0.58 0.64 0.74 0.78 0.82 0.82 0.78 0.69 0.57 0.66 0.93 1.51 2.22 2.78 2.94 2.95 3.01 2.84 2.49 2.25 2.13 2.17 2.24
1.69 1.81 1.89 1.82 1.77 1.72 1.63 1.50 1.46 1.42 1.40 1.26 1.13 1.39 1.43 1.12 0.80 0.64 0.56 0.52 0.53 0.54 0.57 0.63 0.68 0.73 0.82 0.85 0.72 0.64 0.70 1.00 1.57 2.38 2.95 3.06 3.14 3.29 3.10 2.66 2.39 2.33 2.38
1.71 1.72 1.79 1.82 1.79 1.74 1.67 1.55 1.46 1.39 1.43 1.45 1.25 1.10 1.09 1.04 1.04 0.83 0.61 0.52 0.51 0.52 0.50 0.49 0.52 0.57 0.69 0.83 0.89 0.83 0.80 0.88 1.19 1.77 2.52 3.13 3.33 3.54 3.69 3.32 2.84 2.56 2.47
1.76 1.70 1.71 1.76 1.79 1.75 1.71 1.64 1.57 1.57 1.54 1.51 1.42 1.23 1.06 0.92 0.90 1.00 0.81 0.63 0.59 0.57 0.54 0.52 0.52 0.52 0.55 0.66 0.80 0.87 0.95 0.95 1.12 1.45 1.91 2.68 3.43 3.76 3.98 3.86 3.34 2.84 2.58
1.80 1.74 1.64 1.67 1.75 1.78 1.76 1.76 1.71 1.68 1.67 1.59 1.47 1.37 1.37 1.35 1.13 1.05 0.94 0.72 0.65 0.60 0.59 0.59 0.58 0.57 0.56 0.58 0.70 0.84 0.92 0.99 1.08 1.24 1.43 1.90 2.80 3.61 3.94 3.91 3.62 3.20 2.80
1.91 1.76 1.65 1.59 1.62 1.65 1.65 1.67 1.77 1.80 1.75 1.75 1.72 1.57 1.44 1.39 1.30 1.29 1.33 1.11 0.89 0.75 0.72 0.70 0.68 0.66 0.63 0.63 0.71 0.78 0.79 0.93 1.07 1.16 1.21 1.31 1.77 2.72 3.64 4.03 3.85 3.50 3.22
1.86 1.76 1.68 1.58 1.51 1.53 1.57 1.59 1.66 1.72 1.73 1.70 1.65 1.62 1.57 1.48 1.43 1.45 1.52 1.57 1.41 1.07 0.93 0.84 0.75 0.71 0.71 0.72 0.78 0.84 0.73 0.87 1.02 1.09 1.22 1.26 1.39 1.77 2.62 3.68 4.30 4.00 3.53
1.92 1.84 1.74 1.69 1.61 1.57 1.55 1.54 1.56 1.57 1.61 1.66 1.64 1.57 1.57 1.48 1.48 1.48 1.47 1.59 1.79 1.59 1.09 0.85 0.80 0.78 0.75 0.78 0.89 0.85 0.75 0.88 1.02 1.04 1.13 1.22 1.29 1.38 1.72 2.45 3.48 4.22 4.16
2.04 2.06 1.97 1.85 1.74 1.72 1.69 1.62 1.54 1.46 1.49 1.55 1.63 1.67 1.64 1.54 1.47 1.46 1.47 1.46 1.51 1.63 1.38 0.90 0.81 0.83 0.85 0.85 0.97 0.90 0.86 1.00 1.05 1.01 1.06 1.13 1.21 1.33 1.47 1.77 2.40 3.40 4.07
2.12 2.16 2.17 2.09 1.96 1.86 1.81 1.79 1.71 1.63 1.59 1.52 1.52 1.57 1.57 1.51 1.51 1.49 1.47 1.40 1.34 1.43 1.48 0.98 0.81 0.83 0.90 0.95 0.99 0.96 0.95 0.97 0.98 0.98 1.02 1.11 1.18 1.27 1.41 1.60 1.88 2.50 3.41
2.16 2.15 2.28 2.28 2.18 2.06 1.97 1.96 1.93 1.84 1.81 1.72 1.61 1.54 1.51 1.53 1.59 1.55 1.51 1.41 1.31 1.28 1.40 1.22 0.89 0.85 0.93 1.00 1.06 1.10 1.10 1.09 1.04 1.10 1.10 1.13 1.20 1.23 1.36 1.53 1.72 2.02 2.62
2.04 2.13 2.28 2.40 2.30 2.23 2.13 1.98 1.99 2.06 2.02 1.94 1.86 1.82 1.73 1.68 1.73 1.70 1.62 1.47 1.33 1.24 1.24 1.25 1.03 0.90 0.96 1.05 1.18 1.20 1.19 1.17 1.10 1.17 1.20 1.23 1.26 1.25 1.31 1.42 1.60 1.79 2.06
1.84 2.05 2.21 2.36 2.40 2.43 2.50 2.37 2.25 2.12 2.10 2.09 2.03 1.97 1.98 1.95 1.90 1.85 1.81 1.60 1.38 1.31 1.26 1.29 1.17 1.00 0.97 1.05 1.31 1.43 1.42 1.34 1.25 1.15 1.20 1.24 1.30 1.30 1.30 1.31 1.38 1.54 1.79
1.74 1.87 2.00 2.16 2.24 2.46 2.96 3.04 2.60 2.08 1.89 1.88 1.83 1.77 1.83 1.99 2.07 2.06 2.05 1.86 1.68 1.63 1.54 1.51 1.37 1.21 1.11 1.20 1.43 1.51 1.58 1.51 1.50 1.33 1.19 1.14 1.14 1.16 1.19 1.26 1.33 1.43 1.62
1.69 1.79 1.85 1.88 1.95 2.19 2.84 2.96 2.42 1.92 1.70 1.67 1.67 1.59 1.57 1.70 1.78 1.84 1.96 1.97 1.97 2.01 1.96 1.82 1.63 1.46 1.25 1.20 1.34 1.62 1.75 1.84 1.89 1.55 1.36 1.30 1.17 1.22 1.21 1.21 1.30 1.34 1.52
1.61 1.64 1.67 1.67 1.69 1.93 2.46 2.52 2.24 1.83 1.62 1.47 1.43 1.41 1.40 1.41 1.52 1.40 1.54 1.67 1.75 1.92 2.05 2.01 1.94 1.63 1.39 1.32 1.50 1.74 1.82 1.92 1.88 1.69 1.67 1.77 1.53 1.42 1.34 1.34 1.40 1.36 1.50
1.57 1.52 1.51 1.50 1.52 1.70 2.21 2.36 2.20 1.79 1.64 1.51 1.42 1.30 1.24 1.24 1.38 1.43 1.46 1.45 1.38 1.49 1.74 1.88 1.98 1.79 1.57 1.56 1.79 2.02 2.15 2.19 2.06 1.94 1.89 2.07 1.79 1.61 1.50 1.44 1.46 1.42 1.45
1.45 1.42 1.38 1.42 1.40 1.53 2.04 2.41 2.27 1.81 1.76 1.65 1.52 1.43 1.32 1.18 1.45 1.57 1.44 1.36 1.23 1.27 1.44 1.72 1.89 1.92 1.92 1.99 2.14 2.38 2.53 2.61 2.52 2.17 1.98 2.11 1.97 1.74 1.69 1.72 1.66 1.58 1.44
1.28 1.29 1.25 1.27 1.25 1.36 1.80 2.29 2.35 1.81 1.71 1.60 1.51 1.48 1.58 1.49 1.57 1.53 1.34 1.36 1.37 1.22 1.18 1.26 1.36 1.46 1.47 1.54 1.84 2.06 2.26 2.50 2.50 2.48 2.09 2.07 2.09 2.04 2.27 1.97 1.68 1.44 1.31